Location: Unspecified
(33.6682°S, 0.0000°E)
Time: 14:43:15
(UTC+00:00)

Tiros 1 despin weight - Pass Details

Date: 26 June 2019
Orbit: 594 x 642 km, 48.2° (Epoch: 20 July)

Event Time Altitude Azimuth Distance (km) Brightness Sun altitude
Rises 09:32:36 0° 291° (WNW) 2,895 ? 22.7°
Reaches altitude 10° 09:34:59 10° 284° (WNW) 2,002 ? 23.0°
Maximum altitude 09:39:23 43° 211° (SSW) 898 ? 23.5°
Drops below altitude 10° 09:43:53 10° 139° (SE) 2,043 ? 24.1°
Sets 09:46:21 0° 132° (SE) 2,962 ? 24.4°
